Location: Pallagorio
(39.3000°N, 16.9000°E)
Time: 19:06:16
(UTC+00:00)

USA 267 - Pass Details

Date: 24 January 2021
Orbit: 1099 x 1108 km, 123.0° (Epoch: 03 March)

Event Time Altitude Azimuth Distance (km) Brightness Sun altitude
Exits shadow 18:41:56 71° 160° (SSE) 1,161 3.2 -30.5°
Drops below altitude 10° 18:48:04 10° 219° (SW) 2,952 5.9 -31.7°
Sets 18:50:33 0° 221° (SW) 3,908 6.7 -32.2°
